Regional Weather Roundup
Issued by NWS

Home | Current Version | Previous Version | Text Only | Print | Product List | Glossary On
Versions: 1 2 3 4 5 6 7 8 9 10 11 12 13 14 15 16 17 18 19 20 21 22 23 24 25 26 27 28
000
ASUS42 KFFC 010903
RWRGA
WEATHER ROUNDUP FOR GEORGIA
NATIONAL WEATHER SERVICE PEACHTREE CITY GA
500 AM EDT SAT NOV 01 2014

NOTE: "FAIR" INDICATES FEW OR NO CLOUDS BELOW 12,000 FEET WITH NO
SIGNIFICANT WEATHER AND/OR OBSTRUCTIONS TO VISIBILITY.

* = USE WITH CAUTION. THE STATIONS MARKED WITH AN ASTERISK MAY NOT
REPORT WEATHER SUCH AS PRECIPITATION, FOG, OR THUNDER AND ARE NOT
QUALITY CONTROLLED BY NWS.

THE REMARK "TC" DENOTES TEMPERATURE READING IN DEGREES CELSIUS.

GAZ001>058-011000-
NORTH GEORGIA

CITY           SKY/WX    TMP DP  RH WIND       PRES   REMARKS
ATLANTA        CLOUDY    39  28  64 NW18G28   29.93S WCI  30
ATHENS         CLOUDY    38  31  76 W13G24    29.83F WCI  30
CHAMBLEE       CLOUDY    38  28  67 NW23G36   29.91F WCI  27
PEACHTREE CITY PTCLDY    39  28  64 W13G21    29.97S WCI  31
ROME           CLOUDY    40  27  59 NW10G26   30.00F WCI  33
WEST ATLANTA   CLOUDY    39  28  64 NW14G31   29.95S WCI  31
GAINESVILLE    MOCLDY    37  29  72 NW15G24   29.86S WCI  28
CARTERSVILLE   CLOUDY    39  28  64 VRB3      29.99S


CITY           SKY/WX    TMP DP  RH WIND       PRES   REMARKS
DALTON*        CLOUDY    37  32  81 NW15G25   29.98F WCI  28
MARIETTA       MIX PCPN  39  28  65 NW17G29   29.93F WCI  30
$$

GAZ059>098-102>109-011000-
CENTRAL GEORGIA

CITY           SKY/WX    TMP DP  RH WIND       PRES   REMARKS
AUGUSTA-BUSH   CLOUDY    44  30  57 W18G24    29.78F
AUGUSTA-DANIEL CLOUDY    44  30  57 NW14G26   29.78F
COLUMBUS       CLEAR     39  25  57 NW15G21   30.04F WCI  31
MACON          CLEAR     38  26  62 W12G20    29.94S WCI  30
ROBINS AFB     CLEAR     40  27  59 W16G25    29.93R WCI  32


CITY           SKY/WX    TMP DP  RH WIND       PRES   REMARKS
LAGRANGE*      CLEAR     40  31  68 NW14      30.01F WCI  33
SYLVANIA*      CLOUDY    52  39  60 W13G23    29.81R
MILLEDGEVILLE* CLEAR     41  32  70 W10G18    29.88F
$$

GAZ099>101-110>166-011000-
SOUTH GEORGIA

CITY           SKY/WX    TMP DP  RH WIND       PRES   REMARKS
SAVANNAH       CLOUDY    53  33  46 W22G32    29.79S
VALDOSTA       CLEAR     47  22  37 NW9       29.97R
ALMA           PTCLDY    44  24  45 NW16G24   29.93R
ST SIMONS      MOCLDY    54  44  69 W15G23    29.83S
FT STEWART     CLOUDY    49  30  48 W23G32    29.83R
ALBANY         CLEAR     42  26  53 NW12      30.05S
HUNTER AFB     CLOUDY    53  38  58 W20G28    29.77S
MOODY AFB      CLEAR     46  30  54 NW16G29   29.97R
BRUNSWICK      CLOUDY    54  45  71 NW18G24   29.85R


CITY           SKY/WX    TMP DP  RH WIND       PRES   REMARKS
BAINBRIDGE*    CLEAR     45  32  61 NW14G23   30.08R
VIDALIA*       PTCLDY    43  30  61 W12G26    29.89S
WAYCROSS*      MOCLDY    51  35  54 NW24G30   29.91R
DOUGLAS*       PTCLDY    45  23  42 NW15G26   29.97R
$$



USA.gov is the U.S. government's official web portal to all federal, state and local government web resources and services.